TimeMST,TemperatureF,Dew PointF,Humidity,Sea Level PressureIn,VisibilityMPH,Wind Direction,Wind SpeedMPH,Gust SpeedMPH,PrecipitationIn,Events,Conditions,WindDirDegrees,DateUTC
12:15 AM,36.1,21.7,56,30.12,10.0,SSE,8.1,-,N/A,,Clear,150,2013-11-03 06:15:00
12:35 AM,37.6,21.7,53,30.12,10.0,South,6.9,-,N/A,,Clear,170,2013-11-03 06:35:00
12:55 AM,35.6,21.7,57,30.09,10.0,SSE,6.9,-,N/A,,Clear,160,2013-11-03 06:55:00
1:15 AM,38.8,21.9,51,30.09,10.0,SSW,5.8,-,N/A,,Clear,200,2013-11-03 07:15:00
1:35 AM,37.9,21.9,53,30.10,10.0,WSW,5.8,-,N/A,,Clear,250,2013-11-03 07:35:00
1:55 AM,36.9,21.7,54,30.10,10.0,Calm,Calm,-,N/A,,Clear,0,2013-11-03 07:55:00
1:15 AM,34.7,21.7,59,30.10,10.0,Calm,Calm,-,N/A,,Clear,0,2013-11-03 08:15:00
1:35 AM,34.7,22.1,60,30.09,10.0,SSW,5.8,-,N/A,,Clear,210,2013-11-03 08:35:00
1:55 AM,37.2,21.9,54,30.10,10.0,SW,6.9,-,N/A,,Clear,230,2013-11-03 08:55:00
2:15 AM,36.3,22.1,56,30.08,10.0,South,6.9,-,N/A,,Scattered Clouds,170,2013-11-03 09:15:00
2:35 AM,41.4,20.3,43,30.07,10.0,SE,6.9,-,N/A,,Mostly Cloudy,130,2013-11-03 09:35:00
2:55 AM,40.1,21.0,47,30.08,10.0,South,5.8,-,N/A,,Mostly Cloudy,180,2013-11-03 09:55:00
3:15 AM,40.1,21.2,47,30.07,10.0,SW,6.9,-,N/A,,Clear,220,2013-11-03 10:15:00
3:35 AM,41.2,20.7,44,30.06,10.0,South,4.6,-,N/A,,Clear,190,2013-11-03 10:35:00
3:55 AM,41.5,20.8,44,30.05,10.0,South,6.9,-,N/A,,Mostly Cloudy,180,2013-11-03 10:55:00
4:15 AM,41.0,20.8,45,30.05,10.0,SSE,4.6,-,N/A,,Scattered Clouds,160,2013-11-03 11:15:00
4:35 AM,42.3,25.0,50,30.04,10.0,ESE,9.2,-,N/A,,Clear,120,2013-11-03 11:35:00
4:55 AM,43.7,31.1,61,30.04,10.0,ESE,5.8,-,N/A,,Clear,120,2013-11-03 11:55:00
5:15 AM,44.8,31.8,60,30.03,10.0,East,8.1,-,N/A,,Scattered Clouds,90,2013-11-03 12:15:00
5:35 AM,46.2,31.5,56,30.01,10.0,East,6.9,-,N/A,,Scattered Clouds,100,2013-11-03 12:35:00
5:55 AM,43.0,32.0,65,30.01,10.0,South,8.1,-,N/A,,Clear,190,2013-11-03 12:55:00
6:15 AM,42.8,32.0,66,30.00,10.0,ESE,4.6,-,N/A,,Clear,120,2013-11-03 13:15:00
6:35 AM,43.0,32.0,65,30.01,10.0,East,5.8,-,N/A,,Clear,100,2013-11-03 13:35:00
6:55 AM,39.6,31.3,72,30.01,10.0,SE,6.9,-,N/A,,Clear,130,2013-11-03 13:55:00
7:15 AM,40.6,32.0,71,30.02,10.0,SW,3.5,-,N/A,,Clear,220,2013-11-03 14:15:00
7:35 AM,43.9,32.0,63,30.03,10.0,Calm,Calm,-,N/A,,Clear,0,2013-11-03 14:35:00
7:55 AM,45.1,32.0,60,30.04,10.0,Calm,Calm,-,N/A,,Clear,0,2013-11-03 14:55:00
8:15 AM,49.3,30.9,49,30.03,10.0,SE,9.2,-,N/A,,Scattered Clouds,130,2013-11-03 15:15:00
8:35 AM,51.1,30.2,45,30.03,10.0,SE,8.1,-,N/A,,Mostly Cloudy,130,2013-11-03 15:35:00
8:55 AM,52.5,30.0,42,30.02,10.0,SSE,6.9,-,N/A,,Scattered Clouds,150,2013-11-03 15:55:00
9:15 AM,54.7,31.5,41,30.03,10.0,SW,10.4,17.3,N/A,,Mostly Cloudy,230,2013-11-03 16:15:00
9:35 AM,54.0,31.8,43,30.03,10.0,SW,9.2,-,N/A,,Overcast,220,2013-11-03 16:35:00
9:55 AM,53.6,31.6,43,30.02,10.0,SW,6.9,-,N/A,,Overcast,220,2013-11-03 16:55:00
10:15 AM,54.1,31.6,42,30.02,10.0,SW,4.6,-,N/A,,Overcast,230,2013-11-03 17:15:00
10:35 AM,54.7,30.9,40,30.01,10.0,West,9.2,17.3,N/A,,Overcast,270,2013-11-03 17:35:00
10:55 AM,54.9,30.9,40,30.00,10.0,WSW,8.1,19.6,N/A,,Overcast,240,2013-11-03 17:55:00
11:15 AM,55.6,31.5,40,29.99,10.0,WSW,8.1,20.7,N/A,,Overcast,240,2013-11-03 18:15:00
11:35 AM,57.4,30.6,36,29.98,10.0,West,12.7,19.6,N/A,,Overcast,260,2013-11-03 18:35:00
11:55 AM,55.8,27.7,34,29.97,10.0,West,13.8,27.6,N/A,,Overcast,260,2013-11-03 18:55:00
12:15 PM,59.7,27.1,29,29.96,10.0,West,17.3,25.3,N/A,,Scattered Clouds,260,2013-11-03 19:15:00
12:35 PM,60.4,27.5,29,29.95,10.0,West,17.3,26.5,N/A,,Scattered Clouds,260,2013-11-03 19:35:00
12:55 PM,60.4,28.4,30,29.93,10.0,West,17.3,27.6,N/A,,Scattered Clouds,270,2013-11-03 19:55:00
1:15 PM,61.3,28.4,29,29.92,10.0,WSW,16.1,23.0,N/A,,Clear,250,2013-11-03 20:15:00
1:35 PM,61.3,28.9,29,29.92,10.0,West,17.3,24.2,N/A,,Clear,270,2013-11-03 20:35:00
1:55 PM,60.4,27.0,28,29.91,10.0,WSW,13.8,27.6,N/A,,Scattered Clouds,250,2013-11-03 20:55:00
2:15 PM,59.0,27.3,30,29.91,10.0,West,16.1,26.5,N/A,,Scattered Clouds,270,2013-11-03 21:15:00
2:35 PM,62.1,27.7,27,29.90,10.0,West,10.4,26.5,N/A,,Scattered Clouds,260,2013-11-03 21:35:00
2:55 PM,61.9,28.4,28,29.89,10.0,WSW,13.8,20.7,N/A,,Scattered Clouds,250,2013-11-03 21:55:00
3:15 PM,61.5,28.0,28,29.89,10.0,West,17.3,23.0,N/A,,Scattered Clouds,260,2013-11-03 22:15:00
3:35 PM,59.9,28.9,31,29.89,10.0,WSW,19.6,28.8,N/A,,Scattered Clouds,240,2013-11-03 22:35:00
3:55 PM,61.0,29.8,31,29.89,10.0,West,11.5,21.9,N/A,,Scattered Clouds,280,2013-11-03 22:55:00
4:15 PM,59.4,30.0,33,29.89,10.0,WNW,15.0,24.2,N/A,,Scattered Clouds,290,2013-11-03 23:15:00
4:35 PM,58.1,30.4,35,29.88,10.0,West,17.3,20.7,N/A,,Clear,270,2013-11-03 23:35:00
4:55 PM,56.7,30.7,37,29.88,10.0,SW,5.8,-,N/A,,Clear,230,2013-11-03 23:55:00
5:15 PM,55.0,30.2,39,29.89,10.0,WNW,4.6,-,N/A,,Clear,300,2013-11-04 00:15:00
5:35 PM,52.9,30.4,42,29.89,10.0,Calm,Calm,-,N/A,,Clear,0,2013-11-04 00:35:00
5:55 PM,49.3,30.2,48,29.90,10.0,Calm,Calm,-,N/A,,Clear,0,2013-11-04 00:55:00
6:15 PM,48.4,30.4,50,29.90,10.0,Calm,Calm,-,N/A,,Clear,0,2013-11-04 01:15:00
6:35 PM,47.8,30.6,51,29.91,10.0,Calm,Calm,-,N/A,,Clear,0,2013-11-04 01:35:00
6:55 PM,48.9,30.9,50,29.92,10.0,West,4.6,-,N/A,,Clear,260,2013-11-04 01:55:00
7:15 PM,49.5,31.1,49,29.92,10.0,Calm,Calm,-,N/A,,Clear,0,2013-11-04 02:15:00
7:35 PM,46.9,30.9,54,29.93,10.0,Calm,Calm,-,N/A,,Clear,0,2013-11-04 02:35:00
7:55 PM,48.6,31.8,52,29.93,10.0,Calm,Calm,-,N/A,,Clear,0,2013-11-04 02:55:00
8:15 PM,46.2,31.5,56,29.93,10.0,Calm,Calm,-,N/A,,Clear,0,2013-11-04 03:15:00
8:35 PM,47.3,32.0,55,29.93,10.0,East,3.5,-,N/A,,Clear,100,2013-11-04 03:35:00
8:55 PM,-9999,-9999,N/A,-9999,-9999.0,North,-9999.0,-,N/A,,Clear,0,2013-11-04 03:55:00
9:15 PM,-9999,-9999,N/A,-9999,-9999.0,North,-9999.0,-,N/A,,Unknown,0,2013-11-04 04:15:00
9:35 PM,-9999,-9999,N/A,-9999,-9999.0,North,-9999.0,-,N/A,,Unknown,0,2013-11-04 04:35:00
9:55 PM,-9999,-9999,N/A,-9999,-9999.0,North,-9999.0,-,N/A,,Unknown,0,2013-11-04 04:55:00
10:15 PM,-9999,-9999,N/A,-9999,-9999.0,North,-9999.0,-,N/A,,Unknown,0,2013-11-04 05:15:00
10:35 PM,-9999,-9999,N/A,-9999,-9999.0,North,-9999.0,-,N/A,,Unknown,0,2013-11-04 05:35:00
10:55 PM,-9999,-9999,N/A,-9999,-9999.0,North,-9999.0,-,N/A,,Unknown,0,2013-11-04 05:55:00